Regional Weather Roundup
Issued by NWS

Home | Current Version | Previous Version | Text Only | Print | Product List | Glossary Off
Versions: 1 2 3 4 5 6 7 8 9 10 11 12 13 14 15 16 17 18 19 20 21 22 23 24 25 26 27 28 29 30 31 32 33 34 35 36 37 38 39 40 41 42 43 44 45 46 47 48 49 50

024
ASUS45 KCYS 170910
RWRWY

WYOMING REGIONAL WEATHER ROUNDUP
NATIONAL WEATHER SERVICE CHEYENNE WY
200 AM MST SUN DEC 17 2017

NOTE:  "FAIR" INDICATES FEW OR NO CLOUDS BELOW 12,000 FEET
WITH NO SIGNIFICANT WEATHER AND/OR OBSTRUCTIONS TO VISIBILITY.

WYZ001-171000-
YELLOWSTONE NATIONAL PARK

CITY           SKY/WX    TMP DP  RH WIND       PRES   REMARKS
LK YELLOWSTONE   N/A     -3  -6  87 NW3       30.00R
W YELLOWSTONE  NOT AVBL

$$
WYZ002>013-054>058-071-098>099-171000-
NORTHERN WYOMING

CITY           SKY/WX    TMP DP  RH WIND       PRES   REMARKS
JACKSON        FAIR       7   3  84 NE3       30.02R
CODY           CLOUDY    23  21  92 E6        29.99F WCI  16
GREYBULL       CLOUDY    25  22  88 W5        30.02S WCI  19
WORLAND        CLOUDY    26  25  96 S5        30.02S WCI  20
SHERIDAN       FOG       24  23  96 CALM      29.98F VSB 1/4
BUFFALO        FAIR      23  18  81 S6        29.97F WCI  16
GILLETTE       LGT SNOW  25  24  96 CALM      29.99S FOG
HULETT         LGT SNOW  28  27  93 CALM      30.00F
NEWCASTLE      LGT SNOW  28  28 100 CALM      30.02S

$$
WYZ014>020-022>026-101>103-171000-
CENTRAL WYOMING

CITY           SKY/WX    TMP DP  RH WIND       PRES   REMARKS
BIG PINEY      MOCLDY    18  13  80 CALM      29.95R
PINEDALE       CLOUDY    19  14  79 NW6       29.95R WCI  11
DUBOIS         CLOUDY    21  19  93 CALM      29.93R
LANDER         CLOUDY    23  20  88 SE5       29.97R WCI  17
RIVERTON       CLOUDY    22  21  96 S5        29.98S FOG     WCI  16
CASPER         CLOUDY    24  21  88 N8        29.96S WCI  15
DOUGLAS        CLOUDY    26  24  92 SE8       29.98S WCI  18

$$
WYZ021-027>030-104>119-171000-
SOUTHERN WYOMING

CITY           SKY/WX    TMP DP  RH WIND       PRES   REMARKS
EVANSTON       CLOUDY    21  19  92 NW6       30.00R WCI  13
FORT BRIDGER   FAIR      22  20  93 W15       30.00S WCI   8
ROCK SPRINGS   LGT SNOW  24  21  88 SW12      29.95R FOG     WCI  13
DIXON          CLOUDY    17  13  83 CALM      29.96R
RAWLINS        CLOUDY    24  21  88 NW5       29.92R WCI  18
SARATOGA       CLOUDY    19  19 100 CALM      29.92R
LARAMIE        CLOUDY    21  21 100 S13       29.85R WCI   9
CHEYENNE       CLOUDY    26  26 100 SE6       29.90S FOG     WCI  19
TORRINGTON     CLOUDY    30  26  85 NE7       29.98F WCI  23
PINE BLUFFS    CLOUDY    28  28 100 E7        29.95R WCI  21

$$




USA.gov is the U.S. government's official web portal to all federal, state and local government web resources and services.